Preview of NWS' New Version of Forecast
This preview is not operational and should not be used for support decisions.

Regional Weather Roundup (RWR)

Issued by National Weather Service (NWS)

                            
000
ASUS43 KLSX 210257
RWRMO 

WEATHER SUMMARY FOR MISSOURI
NATIONAL WEATHER SERVICE SPRINGFIELD MO
1000 PM CDT WED MAR 20 2019

NOTE: "FAIR" INDICATES FEW OR NO CLOUDS BELOW 12,000 FEET WITH NO
       SIGNIFICANT WEATHER AND/OR OBSTRUCTIONS TO VISIBILITY.
       CURRENT SKY AND/OR WEATHER CONDITIONS ARE NOT AVAILABLE FOR
       CHILLICOTHE AND FARMINGTON.

MOZ001>031-035>038-043-044-053-054-210400-
...NORTHERN AND WESTERN MISSOURI...
  
CITY           SKY/WX    TMP DP  RH WIND       PRES   REMARKS
KANSAS CTY INT CLEAR     49  33  54 NW7       30.06R                  
LEE'S SUMMIT   CLEAR     50  32  50 W7        30.05R                  
ST JOSEPH      CLEAR     47  38  71 N8        30.08R                  
CHILLICOTHE      N/A     51  38  60 NW9       30.04R                  
     
$$
MOZ066>068-077>081-088>096-101>105-210400-
...SOUTHWEST MISSOURI...
  
CITY           SKY/WX    TMP DP  RH WIND       PRES   REMARKS
SPRINGFIELD    CLEAR     41  34  76 SW9       30.08F                  
JOPLIN         CLEAR     48  34  58 SW8       30.11S                  
               
$$
MOZ032>034-039>042-045>050-055>058-069>072-210400-
...CENTRAL MISSOURI...  
  
CITY           SKY/WX    TMP DP  RH WIND       PRES   REMARKS
COLUMBIA       NOT AVBL                                               
JEFFERSON CITY CLOUDY    50  38  63 CALM      30.05R                  
ROLLA          MOCLDY    43  36  76 SW8       30.05R                  
SEDALIA        CLEAR     49  32  52 W6        30.05R                  
WARRENSBURG    CLEAR     45  32  61 SW5       30.04S                  
               
$$
MOZ051-052-059>065-210400-
...EAST CENTRAL MISSOURI...
  
CITY           SKY/WX    TMP DP  RH WIND       PRES   REMARKS
ST LOUIS INTL  MOCLDY    47  37  68 SW8       30.02S                  
                   
$$
MOZ072>076-082>087-097>100-106>115-210400-
...SOUTH CENTRAL AND SOUTHEAST MISSOURI...
  
CITY           SKY/WX    TMP DP  RH WIND       PRES   REMARKS
CAPE GIRARDEAU MOCLDY    45  43  93 SW7       30.07R                  
POPLAR BLUFF   FAIR      45  44  97 SW6       30.09R                  
WEST PLAINS    CLEAR     43  37  79 W6        30.10S                  
                                       
$$